STARLINK-3150 (49452 NORAD) Tracking and Keplerian Element Data

This shows tracking and keplerian element data for the satellite.

Feedback or suggestion? Click here.




ElementValue
Catalog49452
NameSTARLINK-3150
Epoch Orbit371
Epoch Day339.91667824
Epoch Year2021
RAAN22.1641
Inclination53.2181
Eccentricity0.0001894
Argument of Perigee38.4032
Mean Anonmoly66.4307
Mean Motion15.73187916
Decay Rate0.00045384
L11 49452U 21104AW 21339.91667824 .00045384 00000+0 32619-3 0 9990
L22 49452 53.2181 22.1641 0001894 38.4032 66.4307 15.73187916 3719

Live tracking and technical data element details for STARLINK-3150 (NORAD 49452). STARLINK-3150 can be tracked NOW for your location showing map with azimuth and elevation plus other details from your city location.

Track the satellite on the map from your city or location and see movement details for azimuth, elevation, latitude, longitude, range, height, and movement on the map or in text.







IsCatalogInMostPopularTable: catalog: 49452, numindb: 1
Update: records affected: 1



GetName: 49452 STARLINK-3150

Hit Count: updated at: Wed, 08 Dec 2021 15:36:17 GMT